Time,TemperatureF,DewpointF,PressureIn,WindDirection,WindDirectionDegrees,WindSpeedMPH,WindSpeedGustMPH,Humidity,HourlyPrecipIn,Conditions,Clouds,dailyrainin,SoftwareType,DateUTC
2013-06-03 00:03:00,67.0,58.0,-100.00,SE,125,0.0,1.0,73,0.00,,,-99.99,,2013-06-03 04:03:00,
2013-06-03 00:13:00,66.0,58.0,-100.00,SSE,165,0.0,2.0,75,0.00,,,-99.99,,2013-06-03 04:13:00,
2013-06-03 00:23:00,66.0,58.0,-100.00,SW,220,1.0,3.0,76,0.00,,,-99.99,,2013-06-03 04:23:00,
2013-06-03 00:33:00,65.0,58.0,-100.00,SE,130,2.0,2.0,80,0.00,,,-99.99,,2013-06-03 04:33:00,
2013-06-03 00:42:00,64.0,58.0,-100.00,SSE,155,0.0,1.0,80,0.00,,,-99.99,,2013-06-03 04:42:00,
2013-06-03 00:53:00,64.0,58.0,-100.00,SE,125,1.0,2.0,82,0.00,,,-99.99,,2013-06-03 04:53:00,
2013-06-03 01:02:00,63.0,58.0,-100.00,SE,145,0.0,1.0,84,0.00,,,-99.99,,2013-06-03 05:02:00,
2013-06-03 01:12:00,64.0,58.0,-100.00,SSW,210,1.0,2.0,81,0.00,,,-99.99,,2013-06-03 05:12:00,
2013-06-03 01:22:00,63.0,58.0,-100.00,SSE,150,0.0,2.0,84,0.00,,,-99.99,,2013-06-03 05:22:00,
2013-06-03 01:32:00,63.0,59.0,-100.00,SE,130,0.0,1.0,85,0.00,,,-99.99,,2013-06-03 05:32:00,
2013-06-03 01:43:00,63.0,59.0,-100.00,SE,130,1.0,2.0,85,0.00,,,-99.99,,2013-06-03 05:43:00,
2013-06-03 01:52:00,64.0,58.0,-100.00,SSW,205,0.0,1.0,82,0.00,,,-99.99,,2013-06-03 05:52:00,
2013-06-03 02:02:00,64.0,58.0,-100.00,East,100,0.0,2.0,79,0.00,,,-99.99,,2013-06-03 06:02:00,
2013-06-03 02:12:00,65.0,57.0,-100.00,SE,140,0.0,1.0,77,0.00,,,-99.99,,2013-06-03 06:12:00,
2013-06-03 02:22:00,64.0,58.0,-100.00,SE,130,1.0,2.0,78,0.00,,,-99.99,,2013-06-03 06:22:00,
2013-06-03 02:32:00,65.0,57.0,-100.00,South,190,0.0,3.0,77,0.00,,,-99.99,,2013-06-03 06:32:00,
2013-06-03 02:42:00,64.0,57.0,-100.00,SSW,195,1.0,2.0,75,0.00,,,-99.99,,2013-06-03 06:42:00,
2013-06-03 02:52:00,64.0,57.0,-100.00,SE,145,1.0,4.0,75,0.00,,,-99.99,,2013-06-03 06:52:00,
2013-06-03 03:02:00,64.0,56.0,-100.00,SSE,150,0.0,2.0,75,0.00,,,-99.99,,2013-06-03 07:02:00,
2013-06-03 03:12:00,64.0,57.0,-100.00,ESE,110,1.0,2.0,77,0.00,,,-99.99,,2013-06-03 07:12:00,
2013-06-03 03:22:00,64.0,57.0,-100.00,SE,125,0.0,1.0,79,0.00,,,-99.99,,2013-06-03 07:22:00,
2013-06-03 03:32:00,64.0,58.0,-100.00,ESE,115,1.0,2.0,80,0.00,,,-99.99,,2013-06-03 07:32:00,
2013-06-03 03:42:00,64.0,57.0,-100.00,South,180,1.0,2.0,79,0.00,,,-99.99,,2013-06-03 07:42:00,
2013-06-03 03:52:00,64.0,57.0,-100.00,East,90,2.0,4.0,79,0.00,,,-99.99,,2013-06-03 07:52:00,
2013-06-03 04:02:00,63.0,57.0,-100.00,SSE,150,2.0,6.0,79,0.00,,,-99.99,,2013-06-03 08:02:00,
2013-06-03 04:12:00,63.0,57.0,-100.00,SE,125,2.0,7.0,80,0.00,,,-99.99,,2013-06-03 08:12:00,
2013-06-03 04:22:00,63.0,57.0,-100.00,SSE,150,3.0,9.0,80,0.00,,,-99.99,,2013-06-03 08:22:00,
2013-06-03 04:32:00,62.0,56.0,-100.00,SE,130,3.0,6.0,80,0.00,,,-99.99,,2013-06-03 08:32:00,
2013-06-03 04:42:00,62.0,56.0,-100.00,SSE,165,2.0,6.0,80,0.00,,,-99.99,,2013-06-03 08:42:00,
2013-06-03 04:52:00,62.0,56.0,-100.00,SW,220,3.0,7.0,80,0.00,,,-99.99,,2013-06-03 08:52:00,
2013-06-03 05:02:00,61.0,55.0,-100.00,SW,220,2.0,9.0,80,0.00,,,-99.99,,2013-06-03 09:02:00,
2013-06-03 05:12:00,61.0,55.0,-100.00,SE,140,2.0,4.0,79,0.00,,,-99.99,,2013-06-03 09:12:00,
2013-06-03 05:22:00,61.0,54.0,-100.00,SE,125,2.0,5.0,79,0.00,,,-99.99,,2013-06-03 09:22:00,
2013-06-03 05:33:00,60.0,54.0,-100.00,SSE,160,1.0,6.0,79,0.00,,,-99.99,,2013-06-03 09:33:00,
2013-06-03 05:43:00,60.0,53.0,-100.00,East,90,1.0,6.0,77,0.00,,,-99.99,,2013-06-03 09:43:00,
2013-06-03 05:52:00,60.0,53.0,-100.00,SSE,155,1.0,4.0,77,0.00,,,-99.99,,2013-06-03 09:52:00,
2013-06-03 06:03:00,60.0,53.0,-100.00,SSE,165,2.0,6.0,78,0.00,,,-99.99,,2013-06-03 10:03:00,
2013-06-03 06:13:00,60.0,53.0,-100.00,ESE,105,2.0,6.0,78,0.00,,,-99.99,,2013-06-03 10:13:00,
2013-06-03 06:22:00,60.0,53.0,-100.00,WSW,240,1.0,4.0,78,0.00,,,-99.99,,2013-06-03 10:22:00,
2013-06-03 06:33:00,59.0,52.0,-100.00,SSE,150,2.0,6.0,77,0.00,,,-99.99,,2013-06-03 10:33:00,
2013-06-03 06:42:00,59.0,52.0,-100.00,SW,225,1.0,4.0,77,0.00,,,-99.99,,2013-06-03 10:42:00,
2013-06-03 06:52:00,59.0,52.0,-100.00,SSE,160,3.0,6.0,77,0.00,,,-99.99,,2013-06-03 10:52:00,
2013-06-03 07:02:00,59.0,52.0,-100.00,South,190,0.0,4.0,77,0.00,,,-99.99,,2013-06-03 11:02:00,
2013-06-03 07:12:00,59.0,52.0,-100.00,SE,125,3.0,6.0,77,0.00,,,-99.99,,2013-06-03 11:12:00,
2013-06-03 07:22:00,59.0,51.0,-100.00,SE,135,3.0,4.0,76,0.00,,,-99.99,,2013-06-03 11:22:00,
2013-06-03 07:32:00,59.0,51.0,-100.00,SE,140,1.0,6.0,76,0.00,,,-99.99,,2013-06-03 11:32:00,
2013-06-03 07:42:00,59.0,51.0,-100.00,SSW,210,3.0,7.0,75,0.00,,,-99.99,,2013-06-03 11:42:00,
2013-06-03 07:52:00,59.0,51.0,-100.00,SSE,150,2.0,6.0,75,0.00,,,-99.99,,2013-06-03 11:52:00,
2013-06-03 08:02:00,59.0,51.0,-100.00,SSE,165,1.0,6.0,73,0.00,,,-99.99,,2013-06-03 12:02:00,
2013-06-03 08:12:00,59.0,51.0,-100.00,WSW,245,4.0,6.0,73,0.00,,,-99.99,,2013-06-03 12:12:00,
2013-06-03 08:22:00,59.0,51.0,-100.00,WSW,250,2.0,6.0,72,0.00,,,-99.99,,2013-06-03 12:22:00,
2013-06-03 08:32:00,60.0,51.0,-100.00,SW,215,1.0,5.0,71,0.00,,,-99.99,,2013-06-03 12:32:00,
2013-06-03 08:42:00,60.0,50.0,-100.00,SE,130,4.0,6.0,71,0.00,,,-99.99,,2013-06-03 12:42:00,
2013-06-03 08:52:00,59.0,51.0,-100.00,SW,220,2.0,10.0,73,0.00,,,-99.99,,2013-06-03 12:52:00,
2013-06-03 09:02:00,59.0,51.0,-100.00,SE,145,3.0,8.0,72,0.00,,,-99.99,,2013-06-03 13:02:00,
2013-06-03 09:12:00,59.0,50.0,-100.00,SW,230,4.0,9.0,73,0.00,,,-99.99,,2013-06-03 13:12:00,
2013-06-03 09:22:00,59.0,51.0,-100.00,SE,140,4.0,7.0,73,0.00,,,-99.99,,2013-06-03 13:22:00,
2013-06-03 09:32:00,61.0,51.0,-100.00,West,280,1.0,5.0,68,0.00,,,-99.99,,2013-06-03 13:32:00,
2013-06-03 09:43:00,60.0,50.0,-100.00,SSE,150,4.0,8.0,70,0.00,,,-99.99,,2013-06-03 13:43:00,
2013-06-03 09:52:00,61.0,51.0,-100.00,SW,230,3.0,7.0,69,0.00,,,-99.99,,2013-06-03 13:52:00,
2013-06-03 10:02:00,60.0,50.0,-100.00,WSW,245,4.0,10.0,69,0.00,,,-99.99,,2013-06-03 14:02:00,
2013-06-03 10:13:00,61.0,51.0,-100.00,West,260,2.0,7.0,69,0.00,,,-99.99,,2013-06-03 14:13:00,
2013-06-03 10:22:00,61.0,50.0,-100.00,SW,230,3.0,7.0,68,0.00,,,-99.99,,2013-06-03 14:22:00,
2013-06-03 10:32:00,60.0,51.0,-100.00,SE,140,4.0,9.0,70,0.00,,,-99.99,,2013-06-03 14:32:00,
2013-06-03 10:42:00,60.0,50.0,-100.00,South,190,2.0,10.0,69,0.00,,,-99.99,,2013-06-03 14:42:00,
2013-06-03 10:52:00,60.0,50.0,-100.00,SE,130,7.0,12.0,69,0.00,,,-99.99,,2013-06-03 14:52:00,
2013-06-03 11:02:00,60.0,50.0,-100.00,SE,135,3.0,12.0,70,0.00,,,-99.99,,2013-06-03 15:02:00,
2013-06-03 11:12:00,60.0,50.0,-100.00,SE,135,4.0,10.0,68,0.00,,,-99.99,,2013-06-03 15:12:00,
2013-06-03 11:22:00,62.0,49.0,-100.00,SE,130,4.0,9.0,64,0.00,,,-99.99,,2013-06-03 15:22:00,
2013-06-03 11:33:00,62.0,50.0,-100.00,SE,130,5.0,9.0,65,0.00,,,-99.99,,2013-06-03 15:33:00,
2013-06-03 11:43:00,62.0,50.0,-100.00,SE,130,4.0,9.0,64,0.00,,,-99.99,,2013-06-03 15:43:00,
2013-06-03 11:53:00,62.0,50.0,-100.00,South,170,3.0,8.0,63,0.00,,,-99.99,,2013-06-03 15:53:00,
2013-06-03 12:03:00,63.0,50.0,-100.00,SE,130,4.0,7.0,63,0.00,,,-99.99,,2013-06-03 16:03:00,
2013-06-03 12:13:00,63.0,50.0,-100.00,SSE,155,4.0,8.0,62,0.00,,,-99.99,,2013-06-03 16:13:00,
2013-06-03 12:23:00,62.0,50.0,-100.00,SSE,155,4.0,9.0,64,0.00,,,-99.99,,2013-06-03 16:23:00,
2013-06-03 12:33:00,63.0,51.0,-100.00,SE,125,4.0,9.0,63,0.00,,,-99.99,,2013-06-03 16:33:00,
2013-06-03 12:42:00,63.0,50.0,-100.00,SE,145,6.0,8.0,62,0.00,,,-99.99,,2013-06-03 16:42:00,
2013-06-03 12:53:00,63.0,50.0,-100.00,SE,145,6.0,8.0,62,0.00,,,-99.99,,2013-06-03 16:53:00,
2013-06-03 13:02:00,63.0,51.0,-100.00,SSE,150,3.0,7.0,64,0.00,,,-99.99,,2013-06-03 17:02:00,
2013-06-03 13:12:00,63.0,50.0,-100.00,SE,125,6.0,10.0,63,0.00,,,-99.99,,2013-06-03 17:12:00,
2013-06-03 13:22:00,64.0,51.0,-100.00,SE,125,4.0,11.0,62,0.00,,,-99.99,,2013-06-03 17:22:00,
2013-06-03 13:33:00,63.0,50.0,-100.00,WSW,240,4.0,9.0,62,0.00,,,-99.99,,2013-06-03 17:33:00,
2013-06-03 13:42:00,64.0,52.0,-100.00,ENE,70,1.0,9.0,64,0.00,,,-99.99,,2013-06-03 17:42:00,
2013-06-03 13:52:00,63.0,50.0,-100.00,SE,135,4.0,9.0,63,0.00,,,-99.99,,2013-06-03 17:52:00,
2013-06-03 14:02:00,64.0,51.0,-100.00,SE,140,3.0,7.0,63,0.00,,,-99.99,,2013-06-03 18:02:00,
2013-06-03 14:12:00,63.0,51.0,-100.00,ESE,115,6.0,9.0,63,0.00,,,-99.99,,2013-06-03 18:12:00,
2013-06-03 14:22:00,63.0,51.0,-100.00,SSW,195,4.0,9.0,64,0.00,,,-99.99,,2013-06-03 18:22:00,
2013-06-03 14:32:00,63.0,51.0,-100.00,SE,125,5.0,9.0,64,0.00,,,-99.99,,2013-06-03 18:32:00,
2013-06-03 14:43:00,64.0,50.0,-100.00,SE,125,4.0,9.0,60,0.00,,,-99.99,,2013-06-03 18:43:00,
2013-06-03 14:52:00,64.0,51.0,-100.00,East,95,4.0,9.0,61,0.00,,,-99.99,,2013-06-03 18:52:00,
2013-06-03 15:03:00,65.0,51.0,-100.00,SE,130,2.0,9.0,59,0.00,,,-99.99,,2013-06-03 19:03:00,
2013-06-03 15:12:00,64.0,50.0,-100.00,SE,140,4.0,8.0,61,0.00,,,-99.99,,2013-06-03 19:12:00,
2013-06-03 15:22:00,65.0,51.0,-100.00,ENE,75,1.0,8.0,61,0.00,,,-99.99,,2013-06-03 19:22:00,
2013-06-03 15:32:00,64.0,50.0,-100.00,SE,140,4.0,9.0,60,0.00,,,-99.99,,2013-06-03 19:32:00,
2013-06-03 15:42:00,64.0,51.0,-100.00,SE,130,2.0,8.0,61,0.00,,,-99.99,,2013-06-03 19:42:00,
2013-06-03 15:52:00,64.0,50.0,-100.00,East,100,5.0,9.0,60,0.00,,,-99.99,,2013-06-03 19:52:00,
2013-06-03 16:02:00,64.0,50.0,-100.00,SE,130,1.0,6.0,60,0.00,,,-99.99,,2013-06-03 20:02:00,
2013-06-03 16:12:00,65.0,51.0,-100.00,East,90,2.0,6.0,59,0.00,,,-99.99,,2013-06-03 20:12:00,
2013-06-03 16:22:00,65.0,50.0,-100.00,East,95,3.0,9.0,58,0.00,,,-99.99,,2013-06-03 20:22:00,
2013-06-03 16:33:00,66.0,50.0,-100.00,East,90,6.0,11.0,55,0.00,,,-99.99,,2013-06-03 20:33:00,
2013-06-03 16:43:00,65.0,50.0,-100.00,NE,50,6.0,11.0,57,0.00,,,-99.99,,2013-06-03 20:43:00,
2013-06-03 16:52:00,66.0,49.0,-100.00,NE,45,0.0,9.0,55,0.00,,,-99.99,,2013-06-03 20:52:00,
2013-06-03 17:02:00,66.0,50.0,-100.00,NE,50,2.0,7.0,57,0.00,,,-99.99,,2013-06-03 21:02:00,
2013-06-03 17:12:00,66.0,49.0,-100.00,NNE,20,3.0,6.0,56,0.00,,,-99.99,,2013-06-03 21:12:00,
2013-06-03 17:22:00,65.0,50.0,-100.00,East,90,2.0,6.0,57,0.00,,,-99.99,,2013-06-03 21:22:00,
2013-06-03 17:33:00,66.0,50.0,-100.00,East,85,1.0,5.0,56,0.00,,,-99.99,,2013-06-03 21:33:00,
2013-06-03 17:43:00,66.0,50.0,-100.00,East,95,1.0,4.0,56,0.00,,,-99.99,,2013-06-03 21:43:00,
2013-06-03 17:53:00,68.0,50.0,-100.00,East,90,0.0,2.0,53,0.00,,,-99.99,,2013-06-03 21:53:00,
2013-06-03 18:03:00,68.0,50.0,-100.00,NNE,25,1.0,5.0,51,0.00,,,-99.99,,2013-06-03 22:03:00,
2013-06-03 18:12:00,70.0,50.0,-100.00,ESE,110,1.0,4.0,48,0.00,,,-99.99,,2013-06-03 22:12:00,
2013-06-03 18:22:00,68.0,50.0,-100.00,NE,55,2.0,9.0,52,0.00,,,-99.99,,2013-06-03 22:22:00,
2013-06-03 18:33:00,67.0,49.0,-100.00,NE,45,4.0,6.0,52,0.00,,,-99.99,,2013-06-03 22:33:00,
2013-06-03 18:42:00,68.0,49.0,-100.00,East,80,3.0,6.0,50,0.00,,,-99.99,,2013-06-03 22:42:00,
2013-06-03 18:52:00,67.0,47.0,-100.00,SE,140,3.0,8.0,49,0.00,,,-99.99,,2013-06-03 22:52:00,
2013-06-03 19:02:00,68.0,48.0,-100.00,ESE,115,2.0,7.0,47,0.00,,,-99.99,,2013-06-03 23:02:00,
2013-06-03 19:12:00,68.0,48.0,-100.00,ESE,115,3.0,7.0,48,0.00,,,-99.99,,2013-06-03 23:12:00,
2013-06-03 19:22:00,68.0,49.0,-100.00,East,90,3.0,6.0,49,0.00,,,-99.99,,2013-06-03 23:22:00,
2013-06-03 19:32:00,68.0,47.0,-100.00,SE,130,6.0,9.0,46,0.00,,,-99.99,,2013-06-03 23:32:00,
2013-06-03 19:42:00,68.0,46.0,-100.00,SE,130,4.0,9.0,44,0.00,,,-99.99,,2013-06-03 23:42:00,
2013-06-03 19:52:00,67.0,46.0,-100.00,SE,130,3.0,9.0,45,0.00,,,-99.99,,2013-06-03 23:52:00,
2013-06-03 20:02:00,66.0,44.0,-100.00,South,185,3.0,9.0,45,0.00,,,-99.99,,2013-06-04 00:02:00,
2013-06-03 20:12:00,65.0,44.0,-100.00,SSW,195,3.0,7.0,45,0.00,,,-99.99,,2013-06-04 00:12:00,
2013-06-03 20:22:00,64.0,43.0,-100.00,South,190,2.0,9.0,45,0.00,,,-99.99,,2013-06-04 00:22:00,
2013-06-03 20:32:00,63.0,42.0,-100.00,South,185,2.0,6.0,46,0.00,,,-99.99,,2013-06-04 00:32:00,
2013-06-03 20:42:00,62.0,42.0,-100.00,South,190,2.0,4.0,47,0.00,,,-99.99,,2013-06-04 00:42:00,
2013-06-03 20:52:00,62.0,40.0,-100.00,SSW,205,2.0,6.0,45,0.00,,,-99.99,,2013-06-04 00:52:00,
2013-06-03 21:02:00,61.0,38.0,-100.00,SE,140,2.0,5.0,43,0.00,,,-99.99,,2013-06-04 01:02:00,
2013-06-03 21:12:00,60.0,39.0,-100.00,SE,140,2.0,6.0,44,0.00,,,-99.99,,2013-06-04 01:12:00,
2013-06-03 21:22:00,58.0,44.0,-100.00,SE,135,1.0,3.0,58,0.00,,,-99.99,,2013-06-04 01:22:00,
2013-06-03 21:32:00,57.0,44.0,-100.00,SE,125,1.0,2.0,61,0.00,,,-99.99,,2013-06-04 01:32:00,
2013-06-03 21:42:00,56.0,43.0,-100.00,SSE,165,1.0,1.0,62,0.00,,,-99.99,,2013-06-04 01:42:00,
2013-06-03 21:52:00,55.0,44.0,-100.00,SE,130,0.0,1.0,65,0.00,,,-99.99,,2013-06-04 01:52:00,
2013-06-03 22:02:00,54.0,44.0,-100.00,SE,130,1.0,3.0,69,0.00,,,-99.99,,2013-06-04 02:02:00,
2013-06-03 22:12:00,52.0,44.0,-100.00,SE,145,1.0,2.0,72,0.00,,,-99.99,,2013-06-04 02:12:00,
2013-06-03 22:22:00,52.0,44.0,-100.00,SE,130,1.0,3.0,72,0.00,,,-99.99,,2013-06-04 02:22:00,
2013-06-03 22:32:00,51.0,43.0,-100.00,SE,125,2.0,3.0,73,0.00,,,-99.99,,2013-06-04 02:32:00,
2013-06-03 22:42:00,51.0,43.0,-100.00,SE,135,1.0,3.0,74,0.00,,,-99.99,,2013-06-04 02:42:00,
2013-06-03 22:52:00,50.0,42.0,-100.00,SE,135,1.0,2.0,74,0.00,,,-99.99,,2013-06-04 02:52:00,
2013-06-03 23:02:00,50.0,42.0,-100.00,SSE,150,0.0,2.0,75,0.00,,,-99.99,,2013-06-04 03:02:00,
2013-06-03 23:12:00,49.0,42.0,-100.00,SE,135,0.0,1.0,74,0.00,,,-99.99,,2013-06-04 03:12:00,
2013-06-03 23:22:00,49.0,41.0,-100.00,SE,140,1.0,2.0,75,0.00,,,-99.99,,2013-06-04 03:22:00,
2013-06-03 23:32:00,48.0,41.0,-100.00,SE,140,1.0,2.0,74,0.00,,,-99.99,,2013-06-04 03:32:00,
2013-06-03 23:43:00,48.0,40.0,-100.00,ESE,120,1.0,2.0,73,0.00,,,-99.99,,2013-06-04 03:43:00,
2013-06-03 23:53:00,48.0,40.0,-100.00,North,355,0.0,1.0,73,0.00,,,-99.99,,2013-06-04 03:53:00,